Location: Chanas
(45.6552°N, 5.2707°E)
Time: 06:59:31
(UTC+00:00)

Daily predictions for brighter satellites

Satellite Brightness Start Highest point End
(mag) Time Altitude Azimuth Time Altitude Azimuth Time Altitude Azimuth
Cosmos 2233 Rocket 4.3 16:31:00 10° N 16:37:07 48° ENE 16:43:10 10° SSE
Cosmos 1408 2.8 16:37:42 10° NNW 16:41:19 76° W 16:44:53 10° S
AQUARIUS 4.4 16:39:05 10° SE 16:43:25 50° ENE 16:47:47 10° N
Cosmos 1867 3.7 16:40:04 10° SSW 16:45:25 59° ESE 16:50:48 10° NE
ASTEX 1 3.5 16:42:36 10° N 16:47:39 89° E 16:52:38 10° S
CENTAUR R/B 4.4 16:42:53 10° WNW 16:47:58 22° NNW 16:53:38 10° NE
Cosmos 1743 Rocket 3.5 16:45:11 10° N 16:49:30 63° E 16:53:50 10° SSE
Cosmos 1805 Rocket 4.5 16:46:12 10° NNE 16:49:54 27° ENE 16:53:37 10° SE
Cosmos 1340 Rocket 3.5 16:50:09 10° SSW 16:54:06 58° WNW 16:58:07 10° N
Okean O Rocket 3.4 16:51:05 10° SSW 16:55:11 37° W 16:59:17 10° NNW
ALOS 4.2 16:52:46 10° SSW 16:57:01 34° W 17:01:17 10° NNW
NOAA 12 4.3 16:53:05 10° SE 16:58:12 50° ENE 17:03:22 10° N
CZ-4 R/B 2.6 16:56:26 10° ESE 16:59:41 22° ENE 17:02:55 10° NNE
GEOS 3 Rocket 3.6 16:54:27 10° NE 16:59:43 81° SE 17:04:59 10° SW
Cosmos 1825 2.7 16:55:59 10° NNW 16:59:44 63° W 17:03:28 10° S
Cosmos 2123 Rocket 4.2 16:53:32 10° S 16:59:45 80° W 17:05:59 10° N
Cosmos 773 Rocket 4.3 16:55:28 10° S 17:00:21 45° ESE 17:05:17 10° NNE
Cosmos 1869 4.0 17:00:02 10° SSE 17:03:32 31° E 17:07:03 10° NNE
ATLAS 3B R/B 4.4 16:59:17 10° WNW 17:03:47 19° NNW 17:08:17 10° NNE
SMAP 3.1 17:01:10 10° SSE 17:05:49 89° W 17:10:30 10° NNW
Cosmos 1725 Rocket 4.5 17:01:26 10° NNW 17:07:43 68° W 17:13:57 10° S
Cosmos 2219 3.2 17:03:48 10° NNW 17:09:25 66° ENE 17:14:59 10° SE
Cosmos 1238 Rocket 2.9 17:08:39 10° N 17:13:23 84° E 17:17:13 10° S
Cosmos 1538 Rocket 4.3 17:09:03 10° S 17:14:01 45° ESE 17:19:05 10° NNE
Cosmos 2369 Rocket 4.5 17:10:49 10° W 17:14:32 18° NW 17:18:16 10° N
Cosmos 1500 Rocket 3.7 17:10:29 10° NNW 17:14:53 77° W 17:19:13 10° S
Cosmos 1633 Rocket 4.0 17:17:11 10° NNE 17:20:52 25° ENE 17:24:32 10° SE
Cosmos 1633 3.4 17:19:47 10° NNE 17:22:59 28° ENE 17:26:10 10° SE
TELKOM 3 2.8 17:23:52 10° WNW 17:25:59 54° NNE 17:26:20 45° ENE
COSMO-SKYMED 1 2.9 17:22:28 10° NNE 17:26:38 43° E 17:30:46 10° S
CSL-04 Rocket 4.0 17:21:56 10° SE 17:26:54 40° ENE 17:31:50 10° N
FengYun 1-2 T 4.3 17:22:00 10° SSE 17:27:23 56° ENE 17:32:46 10° N
Cosmos 2344 4.1 17:21:07 10° WSW 17:28:30 60° NW 17:36:50 10° NE
COBE Rocket 3.8 17:24:19 10° NNE 17:29:10 85° E 17:33:54 10° SSW
Cosmos 1980 Rocket 3.9 17:27:32 10° SE 17:28:59 13° ESE 17:28:59 13° ESE
Cosmos 1666 Rocket 4.0 17:26:31 10° N 17:30:36 37° ENE 17:34:39 10° SE
Cosmos 1607 3.9 17:24:53 10° NNW 17:31:06 72° NE 17:37:21 10° SE
Cosmos 2227 Rocket 2.2 17:26:15 10° NNW 17:31:54 62° ENE 17:37:29 10° SE
Cosmos 2297 Rocket 2.1 17:26:44 10° NNW 17:32:23 67° ENE 17:38:00 10° SE
Sich 1 3.0 17:32:45 10° N 17:37:02 57° ENE 17:41:20 10° SSE
Meteor 2-2 Rocket 4.3 17:32:27 10° S 17:38:21 89° W 17:44:10 10° N
YAOGAN 6 2.5 17:35:32 10° SSE 17:38:59 58° ENE 17:42:26 10° N
Cosmos 2084 3.6 17:35:57 10° NW 17:40:15 73° SW 17:44:27 10° SSE
USA 215 3.6 17:37:19 21° E 17:41:30 47° NNE 17:47:43 10° NW
H-2A R/B 4.4 17:39:32 10° SSW 17:43:09 37° W 17:46:45 10° NNW
Envisat 3.1 17:40:15 10° SSE 17:45:20 81° WSW 17:50:27 10° NNW
Cosmos 2369 4.2 17:40:57 10° S 17:46:05 37° ESE 17:48:29 26° ENE
Cosmos 1151 Rocket 4.3 17:43:08 10° SSE 17:45:19 22° ESE 17:45:19 22° ESE
USA 229 DEB 3.6 17:42:35 10° SSW 17:49:07 77° SE 17:54:26 18° NE
USA 229 3.6 17:42:43 10° SSW 17:49:13 77° SE 17:54:29 18° NE
SKYMED 3 4.4 17:46:24 10° NNE 17:50:46 78° ESE 17:55:06 10° S
Cosmos 1513 Rocket 4.5 17:45:18 10° N 17:51:44 70° E 17:58:04 10° SSE
Cosmos 1862 3.3 17:48:17 10° N 17:52:11 51° ENE 17:56:04 10° SSE
Cosmos 2034 Rocket 4.1 17:46:35 10° N 17:52:47 53° ENE 17:58:59 10° SSE
NOSS 3-1 (A) 3.5 17:49:11 10° SSW 17:54:26 49° ESE 17:57:10 29° ENE
NOSS 3-1 (C) 3.2 17:50:20 10° SSW 17:55:49 77° SE 17:59:56 22° NE
Genesis I 4.1 17:51:58 10° SW 17:55:51 47° NW 17:58:15 21° NNE
YAOGAN 1 2.4 17:51:37 10° SSE 17:55:54 66° ENE 18:00:12 10° N
Cosmos 2082 3.6 17:52:37 10° NNW 17:58:13 62° ENE 18:02:34 17° SE
Cosmos 2263 Rocket 3.8 17:54:40 10° N 17:57:19 16° NNE 17:57:19 16° NNE
Okean-O 4.0 17:55:35 10° S 17:59:45 41° W 18:03:58 10° NNW
SeaSat 1 3.8 18:01:18 10° S 18:05:55 40° WSW 18:10:33 10° NW
Cosmos 2278 4.1 18:01:23 10° S 18:06:38 40° ESE 18:07:12 39° E
Meteor 2-11 Rocket 4.3 18:03:54 10° N 18:10:00 67° E 18:16:06 10° SSE
Cosmos 1697 Rocket 2.7 18:04:57 10° S 18:10:27 54° ESE 18:12:06 40° ENE
Cosmos 1356 Rocket 4.0 18:06:50 10° SSW 18:10:54 58° WNW 18:15:05 10° N
Cosmos 2112 Rocket 4.4 18:07:12 10° S 18:11:31 41° ESE 18:11:31 41° ESE
USA 116 4.0 18:09:07 17° NNE 18:12:35 84° ESE 18:17:34 10° SSW
Tsikada Rocket 4.2 18:06:50 10° SSE 18:12:53 49° E 18:19:01 10° NNE
SKYMED 2 4.1 18:10:31 10° N 18:14:48 59° WNW 18:19:04 10° SSW
Lacrosse 4 Rocket 1.6 18:12:14 10° SSW 18:15:36 51° SSE 18:15:36 51° SSE
ATLAS 5 CENTAUR R/B 2.7 18:12:53 10° NW 18:18:41 66° SW 18:25:17 10° SSE
Cosmos 1680 Rocket 3.5 18:14:51 10° S 18:19:57 58° ESE 18:20:18 56° E
Cosmos 1816 Rocket 4.5 18:16:28 10° S 18:22:41 61° E 18:28:56 10° NNE
H-2A R/B 4.2 18:31:12 14° NNE 18:31:12 14° NNE 18:32:05 10° N
Ariane Rocket 2.9 18:28:22 64° ENE 18:28:22 64° ENE 18:33:15 10° N
ERBS 4.2 18:30:10 10° SW 18:31:44 25° SW 18:31:44 25° SW
NOSS 2-3 (C) 4.3 18:30:12 10° SSW 18:33:15 44° S 18:33:15 44° S
CZ-4 R/B 3.0 18:30:39 10° SSW 18:34:31 36° W 18:38:20 10° NNW
Cosmos 724 4.1 18:32:18 10° NNW 18:38:10 69° NE 18:38:19 68° ENE
NOAA 11 4.2 18:34:56 10° S 18:40:21 76° WSW 18:45:48 10° NNW
CENTAUR R/B 4.4 18:36:02 10° NW 18:41:35 22° NNE 18:42:52 21° NNE
Cosmos 923 Rocket 4.2 18:38:37 10° SSW 18:43:49 70° WNW 18:45:14 47° N
Cosmos 2056 Rocket 4.4 18:45:03 10° NNW 18:48:06 36° N 18:48:06 36° N
Cosmos 1939 Rocket 4.4 18:53:38 32° NW 18:53:38 32° NW 18:56:05 10° NNW
ATLAS 3B R/B 4.4 18:52:55 10° NNW 18:57:15 18° NNE 18:57:16 18° NNE
Cosmos 1980 Rocket 3.4 19:07:52 10° SSW 19:10:50 33° SSW 19:10:50 33° SSW
Cosmos 2227 Rocket 4.5 19:11:15 10° NW 19:15:27 22° W 19:19:37 10° SSW
USA 215 3.3 19:24:41 72° WSW 19:24:41 72° WSW 19:30:53 10° NW
Cosmos 2263 Rocket 4.2 19:37:28 10° NNW 19:39:01 19° NNW 19:39:01 19° NNW
